Location: Albany
(35.0000°S, 118.0000°E)
Time: 03:46:00
(UTC-04:00)

SJ-6B - Visible Passes

Search period start: 31 October 2014 00:00
Search period end: 09 November 2014 23:00
Orbit: 517 x 598 km, 97.8° (Epoch: 30 October)

Date Brightness Start Highest point End Pass type
(mag) Time Alt. Az. Time Alt. Az. Time Alt. Az.
31 Oct 5.3 07:06:10 10° S 07:09:55 30° WSW 07:13:36 10° NW visible
01 Nov 5.2 07:04:16 10° S 07:08:04 32° WSW 07:11:48 10° NW visible
02 Nov 5.1 06:02:22 10° S 06:06:13 33° WSW 06:09:59 10° NW visible
03 Nov 5.0 06:00:27 10° S 06:04:21 35° WSW 06:08:10 10° NW visible
